Record,Date/Time,10,Tamb(K),Rh(%),Pres(mb),Rain,Vint(cm),Lqint(mm), 0.00, 0.10, 0.20, 0.30, 0.40, 0.50, 0.60, 0.70, 0.80, 0.90, 1.00, 1.25, 1.50, 1.75, 2.00, 2.25, 2.50, 2.75, 3.00, 3.25, 3.50, 3.75, 4.00, 4.25, 4.50, 4.75, 5.00, 5.25, 5.50, 5.75, 6.00, 6.25, 6.50, 6.75, 7.00, 7.25, 7.50, 7.75, 8.00, 8.25, 8.50, 8.75, 9.00, 9.25, 9.50, 9.75,10.00
     1,10/06/05 00:01:13,13,291.8, 88.2,1011.7,N, 4.38, 0.00,14.05,12.94,12.70,12.55,12.38,12.14,12.05,11.60,11.36,11.15,10.77, 9.65, 9.09, 8.70, 8.86, 8.29, 8.33, 7.89, 7.21, 6.92, 6.38, 5.76, 5.27, 4.62, 3.96, 3.61, 3.17, 2.84, 2.66, 2.44, 1.99, 1.72, 1.42, 1.16, 0.99, 0.82, 0.78, 0.61, 0.46, 0.32, 0.22, 0.17, 0.12, 0.10, 0.09, 0.07, 0.06
     2,10/06/05 00:02:14,13,291.6, 88.3,1011.5,N, 4.29, 0.02,13.98,12.31,11.98,11.75,11.48,11.20,11.07,10.70,10.42,10.26, 9.98, 9.32, 8.97, 8.62, 8.24, 7.49, 7.03, 6.28, 5.74, 5.63, 5.41, 5.16, 4.96, 4.71, 4.35, 4.02, 3.61, 3.29, 3.02, 2.70, 2.24, 1.87, 1.56, 1.25, 1.07, 0.89, 0.79, 0.61, 0.45, 0.33, 0.23, 0.16, 0.12, 0.10, 0.09, 0.07, 0.06
     3,10/06/05 00:03:14,13,291.8, 87.5,1011.4,N, 4.45, 0.00,13.98,13.41,13.20,13.08,12.93,12.73,12.64,12.21,12.02,11.86,11.55,10.42, 9.81, 9.23, 8.73, 7.46, 6.93, 6.08, 5.49, 5.36, 5.01, 4.76, 4.42, 4.13, 3.71, 3.45, 3.05, 2.79, 2.55, 2.28, 1.92, 1.60, 1.36, 1.10, 0.94, 0.80, 0.74, 0.58, 0.46, 0.32, 0.23, 0.17, 0.12, 0.10, 0.09, 0.07, 0.06
     4,10/06/05 00:04:14,13,291.9, 88.3,1011.4,N, 4.60, 0.00,14.14,14.39,14.29,14.24,14.19,14.05,13.99,13.57,13.45,13.30,12.93,11.48,10.68,10.03, 9.59, 7.94, 7.42, 6.46, 5.74, 5.46, 4.89, 4.53, 4.00, 3.57, 3.01, 2.78, 2.42, 2.20, 1.99, 1.79, 1.52, 1.28, 1.10, 0.91, 0.79, 0.68, 0.66, 0.53, 0.44, 0.31, 0.22, 0.17, 0.12, 0.10, 0.09, 0.08, 0.06
     5,10/06/05 00:05:14,13,291.8, 88.0,1011.6,N, 4.38, 0.00,14.05,13.14,12.89,12.73,12.53,12.30,12.19,11.79,11.57,11.40,11.09,10.12, 9.58, 9.07, 8.62, 7.52, 7.03, 6.21, 5.63, 5.46, 5.11, 4.83, 4.50, 4.19, 3.75, 3.46, 3.07, 2.79, 2.54, 2.27, 1.91, 1.59, 1.35, 1.09, 0.93, 0.79, 0.72, 0.57, 0.44, 0.31, 0.22, 0.17, 0.12, 0.10, 0.09, 0.07, 0.06
     6,10/06/05 00:06:14,13,291.7, 87.4,1011.6,N, 4.34, 0.03,13.90,12.63,12.36,12.18,11.96,11.71,11.60,11.21,10.97,10.80,10.50, 9.69, 9.30, 8.88, 8.48, 7.60, 7.13, 6.34, 5.76, 5.62, 5.29, 5.02, 4.74, 4.45, 4.04, 3.74, 3.33, 3.03, 2.77, 2.48, 2.07, 1.72, 1.44, 1.16, 0.99, 0.84, 0.75, 0.59, 0.45, 0.32, 0.23, 0.17, 0.12, 0.10, 0.09, 0.07, 0.06
     7,10/06/05 00:07:14,13,291.8, 86.2,1011.8,N, 4.41, 0.01,13.77,13.32,13.15,13.05,12.93,12.76,12.67,12.25,12.08,11.91,11.59,10.42, 9.83, 9.25, 8.76, 7.56, 7.06, 6.22, 5.62, 5.45, 5.00, 4.72, 4.32, 3.97, 3.50, 3.24, 2.85, 2.60, 2.36, 2.11, 1.79, 1.48, 1.27, 1.03, 0.88, 0.75, 0.70, 0.55, 0.45, 0.31, 0.22, 0.17, 0.13, 0.10, 0.09, 0.07, 0.06
     8,10/06/05 00:08:14,13,291.8, 86.4,1011.4,N, 4.29, 0.00,13.80,12.05,11.73,11.52,11.27,10.99,10.87,10.50,10.23,10.08, 9.80, 9.15, 8.83, 8.56, 8.26, 7.62, 7.23, 6.52, 5.96, 5.85, 5.62, 5.34, 5.14, 4.86, 4.49, 4.14, 3.70, 3.38, 3.13, 2.81, 2.33, 1.94, 1.62, 1.29, 1.10, 0.92, 0.82, 0.63, 0.46, 0.33, 0.23, 0.17, 0.12, 0.10, 0.09, 0.07, 0.06
     9,10/06/05 00:09:14,13,291.8, 86.7,1011.5,N, 4.38, 0.00,13.84,12.64,12.39,12.22,12.03,11.79,11.69,11.31,11.09,10.94,10.63, 9.77, 9.32, 9.01, 8.75, 7.85, 7.47, 6.69, 6.06, 5.87, 5.50, 5.16, 4.81, 4.43, 3.93, 3.61, 3.19, 2.90, 2.68, 2.42, 2.01, 1.69, 1.42, 1.15, 0.99, 0.83, 0.77, 0.60, 0.46, 0.32, 0.23, 0.17, 0.13, 0.10, 0.09, 0.07, 0.06
    10,10/06/05 00:10:14,13,291.9, 87.0,1011.5,N, 4.47, 0.07,13.98,13.73,13.56,13.46,13.33,13.16,13.07,12.66,12.49,12.33,12.02,10.83,10.21, 9.56, 8.92, 7.50, 6.87, 5.93, 5.33, 5.15, 4.71, 4.47, 4.08, 3.80, 3.38, 3.14, 2.77, 2.53, 2.27, 2.02, 1.72, 1.41, 1.21, 0.98, 0.85, 0.73, 0.68, 0.53, 0.44, 0.31, 0.22, 0.17, 0.13, 0.10, 0.09, 0.07, 0.06
    11,10/06/05 00:11:14,13,291.8, 88.4,1011.5,N, 4.52, 0.20,14.12,13.96,13.80,13.67,13.53,13.36,13.25,12.86,12.66,12.49,12.19,11.04,10.47, 9.81, 9.11, 7.63, 6.93, 5.93, 5.32, 5.10, 4.64, 4.40, 3.98, 3.73, 3.32, 3.09, 2.74, 2.51, 2.23, 1.97, 1.66, 1.36, 1.17, 0.96, 0.84, 0.72, 0.66, 0.52, 0.43, 0.31, 0.22, 0.17, 0.13, 0.10, 0.09, 0.07, 0.06
    12,10/06/05 00:12:14,13,291.6, 88.5,1011.2,N, 4.34, 0.00,13.97,12.66,12.35,12.14,11.91,11.64,11.51,11.13,10.89,10.76,10.49, 9.71, 9.20, 8.83, 8.36, 7.31, 6.81, 5.97, 5.46, 5.36, 5.18, 4.98, 4.75, 4.52, 4.15, 3.84, 3.44, 3.15, 2.91, 2.60, 2.16, 1.80, 1.53, 1.22, 1.05, 0.88, 0.79, 0.62, 0.46, 0.33, 0.23, 0.17, 0.12, 0.10, 0.09, 0.07, 0.06
    13,10/06/05 00:13:14,13,291.6, 89.4,1011.6,N, 4.45, 0.01,14.15,13.44,13.22,13.06,12.88,12.66,12.56,12.17,11.96,11.79,11.47,10.44, 9.90, 9.39, 8.96, 7.75, 7.24, 6.36, 5.72, 5.50, 5.09, 4.78, 4.39, 4.04, 3.55, 3.28, 2.90, 2.63, 2.40, 2.14, 1.80, 1.50, 1.28, 1.04, 0.90, 0.76, 0.71, 0.56, 0.44, 0.31, 0.22, 0.17, 0.12, 0.10, 0.09, 0.07, 0.06
    14,10/06/05 00:14:14,13,291.6, 89.6,1011.5,N, 4.49, 0.00,14.14,13.82,13.64,13.52,13.39,13.20,13.11,12.68,12.51,12.34,12.01,10.76,10.06, 9.44, 9.00, 7.62, 7.15, 6.28, 5.65, 5.46, 5.04, 4.74, 4.31, 3.94, 3.44, 3.18, 2.80, 2.55, 2.33, 2.09, 1.76, 1.48, 1.26, 1.03, 0.88, 0.75, 0.71, 0.56, 0.45, 0.32, 0.22, 0.17, 0.12, 0.10, 0.09, 0.07, 0.06
    15,10/06/05 00:15:14,13,291.8, 89.7,1011.9,N, 4.50, 0.00,14.30,14.17,14.01,13.91,13.81,13.63,13.55,13.10,12.94,12.77,12.37,10.95,10.11, 9.51, 9.36, 8.05, 7.80, 7.05, 6.36, 6.01, 5.41, 4.92, 4.35, 3.78, 3.13, 2.86, 2.50, 2.23, 2.05, 1.86, 1.55, 1.33, 1.13, 0.94, 0.81, 0.69, 0.67, 0.54, 0.43, 0.30, 0.21, 0.17, 0.12, 0.10, 0.09, 0.07, 0.06
    16,10/06/05 00:16:14,13,291.7, 89.7,1011.8,N, 4.38, 0.00,14.22,12.97,12.70,12.50,12.28,12.03,11.92,11.53,11.28,11.08,10.73, 9.86, 9.43, 9.05, 8.90, 8.11, 7.80, 7.09, 6.41, 6.13, 5.66, 5.22, 4.81, 4.34, 3.78, 3.45, 3.05, 2.73, 2.51, 2.27, 1.87, 1.59, 1.33, 1.08, 0.93, 0.78, 0.72, 0.57, 0.43, 0.31, 0.22, 0.16, 0.12, 0.09, 0.09, 0.07, 0.06
    17,10/06/05 00:17:14,13,291.5, 89.4,1011.7,N, 4.41, 0.02,14.04,12.95,12.71,12.53,12.32,12.09,11.98,11.60,11.37,11.18,10.86, 9.98, 9.58, 9.16, 8.85, 7.91, 7.47, 6.66, 6.01, 5.80, 5.38, 5.03, 4.66, 4.27, 3.77, 3.46, 3.07, 2.78, 2.55, 2.28, 1.90, 1.60, 1.35, 1.09, 0.94, 0.80, 0.73, 0.57, 0.45, 0.32, 0.22, 0.17, 0.12, 0.10, 0.09, 0.07, 0.06
    18,10/06/05 00:18:14,13,291.6, 89.6,1012.3,N, 4.31, 0.01,14.16,12.46,12.13,11.89,11.62,11.33,11.20,10.84,10.55,10.36,10.06, 9.39, 9.07, 8.73, 8.46, 7.78, 7.39, 6.66, 6.07, 5.88, 5.58, 5.24, 4.98, 4.63, 4.19, 3.85, 3.44, 3.10, 2.85, 2.56, 2.11, 1.78, 1.48, 1.19, 1.02, 0.85, 0.76, 0.60, 0.44, 0.32, 0.22, 0.16, 0.12, 0.09, 0.09, 0.07, 0.06
    19,10/06/05 00:19:14,13,291.7, 89.6,1011.7,N, 4.56, 0.00,14.17,14.21,14.11,14.02,13.94,13.79,13.72,13.33,13.19,13.01,12.62,11.30,10.63,10.03, 9.68, 8.21, 7.72, 6.78, 6.02, 5.66, 5.00, 4.57, 3.99, 3.50, 2.89, 2.65, 2.30, 2.07, 1.87, 1.68, 1.41, 1.20, 1.03, 0.86, 0.75, 0.64, 0.63, 0.50, 0.42, 0.30, 0.22, 0.17, 0.12, 0.10, 0.09, 0.07, 0.06
    20,10/06/05 00:20:14,13,291.6, 89.1,1011.4,N, 4.27, 0.03,14.08,12.44,12.11,11.86,11.58,11.29,11.14,10.79,10.51,10.34,10.06, 9.42, 9.05, 8.69, 8.27, 7.46, 6.98, 6.19, 5.67, 5.51, 5.26, 5.02, 4.78, 4.52, 4.14, 3.81, 3.42, 3.09, 2.83, 2.52, 2.09, 1.75, 1.46, 1.17, 1.01, 0.85, 0.75, 0.59, 0.43, 0.32, 0.22, 0.16, 0.12, 0.09, 0.09, 0.07, 0.06
    21,10/06/05 00:21:14,13,291.8, 89.0,1011.8,N, 4.47, 0.00,14.20,13.88,13.71,13.60,13.48,13.30,13.21,12.78,12.60,12.42,12.04,10.74,10.02, 9.44, 9.22, 8.01, 7.69, 6.92, 6.23, 5.91, 5.33, 4.88, 4.35, 3.83, 3.23, 2.95, 2.58, 2.31, 2.11, 1.91, 1.60, 1.36, 1.16, 0.95, 0.82, 0.70, 0.67, 0.54, 0.43, 0.30, 0.22, 0.17, 0.12, 0.10, 0.09, 0.07, 0.06
    22,10/06/05 00:22:14,13,291.7, 88.4,1012.1,N, 4.33, 0.00,14.01,12.75,12.47,12.29,12.07,11.82,11.71,11.31,11.06,10.89,10.57, 9.67, 9.17, 8.77, 8.54, 7.72, 7.42, 6.72, 6.14, 5.95, 5.59, 5.22, 4.88, 4.46, 3.95, 3.63, 3.22, 2.90, 2.68, 2.42, 2.01, 1.70, 1.42, 1.15, 0.99, 0.82, 0.76, 0.59, 0.45, 0.32, 0.22, 0.16, 0.12, 0.10, 0.09, 0.07, 0.06
    23,10/06/05 00:23:14,13,291.7, 87.9,1011.5,N, 4.38, 0.00,13.93,13.07,12.83,12.68,12.50,12.27,12.16,11.78,11.57,11.43,11.12,10.15, 9.56, 9.16, 8.80, 7.68, 7.25, 6.42, 5.82, 5.61, 5.21, 4.89, 4.49, 4.10, 3.59, 3.29, 2.91, 2.63, 2.41, 2.17, 1.81, 1.53, 1.30, 1.05, 0.92, 0.77, 0.72, 0.57, 0.44, 0.31, 0.22, 0.17, 0.12, 0.10, 0.09, 0.07, 0.06
    24,10/06/05 00:24:14,13,291.7, 88.3,1012.0,N, 4.37, 0.00,14.05,13.28,13.06,12.91,12.73,12.52,12.41,12.00,11.79,11.60,11.27,10.20, 9.61, 9.06, 8.67, 7.60, 7.18, 6.40, 5.81, 5.61, 5.19, 4.86, 4.47, 4.08, 3.59, 3.31, 2.92, 2.64, 2.40, 2.16, 1.81, 1.52, 1.28, 1.04, 0.90, 0.76, 0.70, 0.55, 0.43, 0.31, 0.22, 0.16, 0.12, 0.10, 0.09, 0.07, 0.06
    25,10/06/05 00:25:14,13,291.7, 89.0,1011.6,N, 4.45, 0.00,14.11,13.71,13.53,13.41,13.28,13.09,12.99,12.58,12.40,12.23,11.87,10.65, 9.96, 9.40, 9.08, 7.83, 7.43, 6.61, 5.96, 5.70, 5.19, 4.81, 4.32, 3.86, 3.30, 3.03, 2.66, 2.40, 2.19, 1.97, 1.65, 1.40, 1.19, 0.98, 0.85, 0.72, 0.68, 0.54, 0.44, 0.31, 0.22, 0.17, 0.12, 0.10, 0.09, 0.07, 0.06
    26,10/06/05 00:26:14,13,291.6, 88.3,1011.7,N, 4.34, 0.00,13.99,12.96,12.71,12.54,12.36,12.12,12.01,11.60,11.38,11.21,10.86, 9.86, 9.28, 8.88, 8.73, 7.87, 7.64, 6.96, 6.35, 6.10, 5.65, 5.22, 4.79, 4.28, 3.70, 3.38, 2.98, 2.68, 2.48, 2.24, 1.85, 1.58, 1.33, 1.08, 0.94, 0.78, 0.73, 0.58, 0.44, 0.31, 0.22, 0.16, 0.12, 0.09, 0.09, 0.07, 0.06
    27,10/06/05 00:27:14,13,291.8, 88.7,1011.7,N, 4.32, 0.00,14.14,12.94,12.64,12.44,12.20,11.94,11.81,11.42,11.18,11.02,10.72, 9.88, 9.35, 8.89, 8.44, 7.42, 6.92, 6.11, 5.58, 5.41, 5.12, 4.87, 4.58, 4.29, 3.87, 3.57, 3.19, 2.88, 2.63, 2.35, 1.97, 1.64, 1.38, 1.11, 0.96, 0.81, 0.73, 0.57, 0.43, 0.31, 0.22, 0.16, 0.12, 0.09, 0.09, 0.07, 0.06
    28,10/06/05 00:28:14,13,291.8, 88.5,1011.8,N, 4.14, 0.00,14.14,11.41,10.96,10.66,10.31, 9.96, 9.81, 9.41, 9.05, 8.87, 8.60, 8.10, 7.79, 7.56, 7.54, 7.40, 7.31, 6.93, 6.52, 6.51, 6.56, 6.23, 6.24, 5.98, 5.70, 5.26, 4.76, 4.31, 4.10, 3.72, 3.01, 2.56, 2.07, 1.63, 1.36, 1.11, 0.95, 0.73, 0.48, 0.35, 0.23, 0.16, 0.12, 0.09, 0.09, 0.07, 0.06
    29,10/06/05 00:29:14,13,291.9, 88.3,1012.0,N, 4.39, 0.00,14.15,13.41,13.20,13.06,12.90,12.70,12.59,12.17,11.95,11.74,11.37,10.23, 9.64, 9.09, 8.90, 7.97, 7.68, 7.00, 6.34, 6.05, 5.50, 5.05, 4.57, 4.07, 3.50, 3.20, 2.81, 2.51, 2.30, 2.07, 1.73, 1.47, 1.23, 1.01, 0.87, 0.73, 0.69, 0.55, 0.43, 0.30, 0.22, 0.16, 0.12, 0.09, 0.09, 0.07, 0.06
    30,10/06/05 00:30:14,13,291.8, 88.1,1012.1,N, 4.20, 0.00,14.06,12.11,11.76,11.53,11.25,10.96,10.81,10.41,10.11, 9.89, 9.57, 8.85, 8.48, 8.12, 8.06, 7.72, 7.58, 7.11, 6.58, 6.42, 6.11, 5.69, 5.44, 5.00, 4.53, 4.15, 3.71, 3.32, 3.09, 2.79, 2.29, 1.95, 1.60, 1.28, 1.08, 0.89, 0.80, 0.62, 0.44, 0.32, 0.22, 0.16, 0.12, 0.09, 0.09, 0.07, 0.06
    31,10/06/05 00:31:14,13,291.7, 86.5,1011.9,N, 4.30, 0.00,13.76,12.46,12.19,12.01,11.80,11.55,11.43,11.05,10.82,10.67,10.37, 9.54, 9.06, 8.70, 8.36, 7.53, 7.15, 6.42, 5.87, 5.73, 5.42, 5.13, 4.83, 4.48, 4.03, 3.71, 3.29, 2.99, 2.76, 2.48, 2.07, 1.73, 1.46, 1.17, 1.01, 0.84, 0.77, 0.60, 0.45, 0.32, 0.22, 0.17, 0.12, 0.10, 0.09, 0.07, 0.06
    32,10/06/05 00:32:14,13,291.7, 87.0,1012.2,N, 4.31, 0.00,13.84,12.33,12.04,11.86,11.64,11.38,11.27,10.86,10.61,10.44,10.13, 9.29, 8.86, 8.51, 8.33, 7.69, 7.44, 6.82, 6.25, 6.13, 5.83, 5.48, 5.20, 4.82, 4.36, 4.02, 3.57, 3.25, 3.02, 2.74, 2.26, 1.90, 1.58, 1.27, 1.08, 0.90, 0.82, 0.63, 0.47, 0.33, 0.23, 0.17, 0.12, 0.10, 0.09, 0.07, 0.06
    33,10/06/05 00:33:14,13,291.8, 86.4,1012.0,N, 4.39, 0.00,13.81,13.26,13.09,12.99,12.87,12.69,12.60,12.20,12.01,11.84,11.46,10.27, 9.66, 9.21, 9.06, 8.10, 7.86, 7.16, 6.48, 6.17, 5.54, 5.06, 4.52, 3.96, 3.33, 3.04, 2.65, 2.38, 2.17, 1.97, 1.65, 1.40, 1.19, 0.98, 0.85, 0.71, 0.68, 0.55, 0.44, 0.30, 0.22, 0.17, 0.12, 0.10, 0.09, 0.07, 0.06
    34,10/06/05 00:34:14,13,291.9, 85.3,1012.1,N, 4.27, 0.00,13.69,12.39,12.13,11.97,11.76,11.53,11.42,11.03,10.79,10.61,10.31, 9.45, 9.02, 8.61, 8.27, 7.55, 7.18, 6.50, 5.95, 5.81, 5.45, 5.14, 4.83, 4.48, 4.04, 3.72, 3.30, 2.99, 2.74, 2.46, 2.06, 1.72, 1.44, 1.16, 0.99, 0.83, 0.75, 0.59, 0.45, 0.31, 0.22, 0.17, 0.12, 0.09, 0.09, 0.07, 0.06
    35,10/06/05 00:35:14,13,291.8, 85.3,1012.2,N, 4.32, 0.00,13.61,12.69,12.46,12.34,12.19,11.98,11.89,11.46,11.25,11.08,10.76, 9.69, 9.13, 8.64, 8.34, 7.49, 7.20, 6.53, 5.99, 5.89, 5.51, 5.19, 4.84, 4.45, 3.97, 3.68, 3.25, 2.96, 2.73, 2.47, 2.07, 1.73, 1.46, 1.17, 1.00, 0.83, 0.77, 0.60, 0.47, 0.32, 0.23, 0.17, 0.12, 0.10, 0.09, 0.08, 0.06
    36,10/06/05 00:36:14,13,291.9, 85.3,1012.2,N, 4.27, 0.00,13.74,12.16,11.87,11.68,11.46,11.20,11.08,10.72,10.46,10.31,10.01, 9.28, 8.87, 8.61, 8.41, 7.77, 7.47, 6.80, 6.23, 6.05, 5.70, 5.33, 5.03, 4.64, 4.15, 3.79, 3.37, 3.04, 2.81, 2.55, 2.11, 1.77, 1.48, 1.19, 1.02, 0.85, 0.77, 0.61, 0.45, 0.32, 0.22, 0.16, 0.12, 0.09, 0.09, 0.07, 0.06
    37,10/06/05 00:37:14,13,291.8, 85.6,1012.2,N, 4.31, 0.00,13.68,12.43,12.21,12.07,11.90,11.68,11.57,11.19,10.95,10.77,10.39, 9.43, 8.98, 8.76, 8.92, 8.52, 8.56, 8.09, 7.38, 7.02, 6.35, 5.70, 5.16, 4.46, 3.75, 3.38, 2.96, 2.64, 2.45, 2.25, 1.84, 1.59, 1.32, 1.08, 0.93, 0.77, 0.74, 0.59, 0.44, 0.31, 0.22, 0.17, 0.12, 0.09, 0.09, 0.07, 0.06
    38,10/06/05 00:38:14,13,291.8, 85.2,1012.0,N, 4.31, 0.00,13.65,12.73,12.53,12.39,12.23,12.03,11.92,11.52,11.31,11.13,10.81, 9.82, 9.33, 8.84, 8.45, 7.58, 7.18, 6.45, 5.88, 5.71, 5.26, 4.95, 4.58, 4.19, 3.72, 3.43, 3.03, 2.75, 2.49, 2.24, 1.89, 1.57, 1.33, 1.07, 0.92, 0.77, 0.71, 0.56, 0.44, 0.31, 0.22, 0.17, 0.12, 0.09, 0.09, 0.07, 0.06
    39,10/06/05 00:39:14,13,291.8, 85.3,1012.5,N, 4.32, 0.00,13.68,12.73,12.51,12.38,12.21,12.01,11.90,11.53,11.32,11.16,10.83, 9.90, 9.42, 9.03, 8.70, 7.80, 7.41, 6.64, 6.03, 5.80, 5.30, 4.94, 4.52, 4.09, 3.56, 3.26, 2.87, 2.59, 2.35, 2.12, 1.78, 1.49, 1.26, 1.02, 0.89, 0.74, 0.69, 0.55, 0.43, 0.30, 0.22, 0.17, 0.12, 0.09, 0.09, 0.07, 0.06
    40,10/06/05 00:40:14,13,291.9, 85.8,1012.2,N, 4.44, 0.00,13.81,13.50,13.37,13.30,13.21,13.05,12.98,12.58,12.42,12.25,11.86,10.61, 9.97, 9.51, 9.33, 8.25, 7.96, 7.19, 6.46, 6.11, 5.41, 4.91, 4.33, 3.77, 3.13, 2.84, 2.47, 2.21, 2.01, 1.83, 1.53, 1.30, 1.11, 0.91, 0.80, 0.67, 0.66, 0.53, 0.43, 0.30, 0.22, 0.17, 0.12, 0.10, 0.09, 0.07, 0.06
    41,10/06/05 00:41:14,13,292.0, 85.7,1012.2,N, 4.31, 0.00,13.83,12.59,12.32,12.16,11.96,11.72,11.60,11.21,10.98,10.83,10.52, 9.64, 9.12, 8.74, 8.41, 7.55, 7.17, 6.45, 5.90, 5.75, 5.43, 5.12, 4.81, 4.47, 4.01, 3.69, 3.27, 2.97, 2.73, 2.46, 2.05, 1.72, 1.45, 1.16, 1.00, 0.83, 0.76, 0.60, 0.45, 0.32, 0.22, 0.17, 0.12, 0.10, 0.09, 0.07, 0.06
    42,10/06/05 00:42:14,13,291.9, 85.5,1012.1,N, 4.26, 0.02,13.73,12.37,12.10,11.93,11.71,11.47,11.35,10.97,10.73,10.55,10.26, 9.47, 9.08, 8.68, 8.28, 7.53, 7.10, 6.37, 5.82, 5.67, 5.31, 5.03, 4.74, 4.42, 4.01, 3.69, 3.28, 2.98, 2.71, 2.43, 2.04, 1.69, 1.42, 1.14, 0.98, 0.82, 0.73, 0.58, 0.44, 0.31, 0.22, 0.16, 0.12, 0.09, 0.09, 0.07, 0.06
    43,10/06/05 00:43:14,13,291.9, 84.9,1012.3,N, 4.30, 0.00,13.64,12.53,12.30,12.16,11.99,11.77,11.67,11.26,11.04,10.86,10.54, 9.57, 9.10, 8.65, 8.34, 7.60, 7.28, 6.62, 6.05, 5.92, 5.51, 5.18, 4.84, 4.45, 3.99, 3.68, 3.25, 2.95, 2.70, 2.44, 2.05, 1.71, 1.43, 1.15, 0.98, 0.82, 0.75, 0.59, 0.45, 0.32, 0.22, 0.17, 0.12, 0.10, 0.09, 0.07, 0.06
    44,10/06/05 00:44:14,13,291.9, 85.1,1012.3,N, 4.33, 0.00,13.66,12.79,12.59,12.47,12.32,12.13,12.03,11.63,11.43,11.25,10.91, 9.88, 9.35, 8.93, 8.67, 7.83, 7.52, 6.83, 6.21, 6.00, 5.48, 5.09, 4.65, 4.19, 3.64, 3.34, 2.93, 2.65, 2.42, 2.19, 1.83, 1.54, 1.30, 1.06, 0.91, 0.76, 0.71, 0.56, 0.44, 0.31, 0.22, 0.17, 0.12, 0.10, 0.09, 0.07, 0.06
    45,10/06/05 00:45:14,13,292.0, 85.6,1012.4,N, 4.23, 0.00,13.83,12.11,11.79,11.59,11.35,11.08,10.95,10.56,10.29,10.11, 9.82, 9.09, 8.71, 8.34, 8.06, 7.48, 7.15, 6.53, 6.01, 5.90, 5.63, 5.33, 5.12, 4.81, 4.42, 4.07, 3.64, 3.29, 3.03, 2.73, 2.27, 1.89, 1.57, 1.25, 1.07, 0.88, 0.79, 0.61, 0.45, 0.32, 0.23, 0.16, 0.12, 0.09, 0.09, 0.07, 0.06
    46,10/06/05 00:46:14,13,291.9, 85.9,1012.5,N, 4.31, 0.00,13.77,12.45,12.19,12.04,11.84,11.61,11.51,11.10,10.86,10.66,10.33, 9.42, 9.00, 8.60, 8.43, 7.82, 7.58, 6.98, 6.38, 6.21, 5.79, 5.39, 5.05, 4.62, 4.11, 3.78, 3.34, 3.03, 2.79, 2.52, 2.10, 1.76, 1.47, 1.18, 1.01, 0.84, 0.77, 0.60, 0.46, 0.32, 0.23, 0.17, 0.12, 0.09, 0.09, 0.07, 0.06
    47,10/06/05 00:47:14,13,291.9, 84.8,1012.8,N, 4.33, 0.00,13.61,12.75,12.56,12.44,12.29,12.09,11.99,11.62,11.42,11.25,10.92, 9.95, 9.46, 9.06, 8.72, 7.83, 7.44, 6.68, 6.06, 5.83, 5.30, 4.93, 4.50, 4.06, 3.53, 3.23, 2.84, 2.56, 2.32, 2.09, 1.76, 1.47, 1.25, 1.01, 0.88, 0.74, 0.69, 0.55, 0.43, 0.30, 0.22, 0.17, 0.12, 0.09, 0.09, 0.07, 0.06
    48,10/06/05 00:48:14,13,291.9, 85.5,1012.1,N, 4.35, 0.00,13.73,12.91,12.69,12.56,12.40,12.20,12.09,11.70,11.50,11.35,11.04,10.04, 9.48, 9.02, 8.57, 7.52, 7.06, 6.26, 5.69, 5.53, 5.13, 4.84, 4.48, 4.13, 3.67, 3.38, 2.99, 2.72, 2.47, 2.22, 1.87, 1.56, 1.32, 1.07, 0.92, 0.77, 0.72, 0.57, 0.44, 0.31, 0.22, 0.17, 0.12, 0.10, 0.09, 0.07, 0.06
    49,10/06/05 00:49:14,13,291.9, 84.8,1012.2,N, 4.33, 0.00,13.64,12.81,12.60,12.48,12.33,12.13,12.02,11.64,11.44,11.28,10.96, 9.98, 9.46, 9.00, 8.58, 7.59, 7.15, 6.36, 5.78, 5.60, 5.16, 4.85, 4.47, 4.11, 3.63, 3.34, 2.94, 2.67, 2.42, 2.18, 1.84, 1.53, 1.30, 1.05, 0.90, 0.76, 0.70, 0.56, 0.44, 0.31, 0.22, 0.17, 0.12, 0.10, 0.09, 0.07, 0.06
    50,10/06/05 00:50:14,13,291.9, 85.1,1012.6,N, 4.33, 0.00,13.70,12.97,12.77,12.66,12.52,12.33,12.22,11.84,11.64,11.47,11.14,10.09, 9.54, 9.06, 8.66, 7.68, 7.26, 6.49, 5.90, 5.68, 5.17, 4.83, 4.41, 4.00, 3.48, 3.20, 2.81, 2.53, 2.29, 2.07, 1.74, 1.46, 1.24, 1.00, 0.87, 0.73, 0.68, 0.54, 0.43, 0.30, 0.22, 0.17, 0.12, 0.09, 0.09, 0.07, 0.06
    51,10/06/05 00:51:14,13,292.0, 86.0,1012.6,N, 4.25, 0.00,13.92,12.35,12.04,11.84,11.60,11.34,11.20,10.83,10.56,10.38,10.09, 9.35, 8.95, 8.56, 8.20, 7.50, 7.09, 6.40, 5.87, 5.72, 5.40, 5.11, 4.86, 4.57, 4.16, 3.83, 3.41, 3.08, 2.81, 2.53, 2.11, 1.76, 1.46, 1.17, 1.00, 0.83, 0.75, 0.59, 0.44, 0.31, 0.22, 0.16, 0.12, 0.09, 0.09, 0.07, 0.06
    52,10/06/05 00:52:14,13,291.9, 86.7,1012.5,N, 4.38, 0.00,13.96,13.19,12.98,12.85,12.68,12.48,12.38,11.99,11.78,11.60,11.27,10.24, 9.71, 9.20, 8.80, 7.74, 7.28, 6.47, 5.85, 5.62, 5.13, 4.80, 4.39, 4.01, 3.51, 3.23, 2.85, 2.57, 2.32, 2.09, 1.76, 1.47, 1.24, 1.01, 0.87, 0.73, 0.68, 0.54, 0.43, 0.30, 0.22, 0.16, 0.12, 0.09, 0.09, 0.07, 0.06
    53,10/06/05 00:53:14,13,291.9, 86.3,1012.0,N, 4.33, 0.00,13.88,12.62,12.36,12.19,11.98,11.74,11.62,11.26,11.02,10.86,10.54, 9.73, 9.31, 8.97, 8.66, 7.82, 7.40, 6.64, 6.02, 5.80, 5.38, 5.03, 4.68, 4.30, 3.81, 3.49, 3.09, 2.79, 2.55, 2.29, 1.91, 1.60, 1.35, 1.09, 0.94, 0.79, 0.72, 0.57, 0.44, 0.31, 0.22, 0.16, 0.12, 0.09, 0.09, 0.07, 0.06
    54,10/06/05 00:54:14,13,291.9, 86.2,1012.3,N, 4.24, 0.00,13.88,12.22,11.91,11.72,11.49,11.22,11.09,10.69,10.42,10.24, 9.91, 9.10, 8.64, 8.32, 8.25, 7.79, 7.65, 7.14, 6.59, 6.40, 6.04, 5.59, 5.27, 4.81, 4.28, 3.91, 3.47, 3.11, 2.89, 2.63, 2.16, 1.84, 1.52, 1.22, 1.04, 0.86, 0.79, 0.62, 0.45, 0.32, 0.22, 0.16, 0.12, 0.09, 0.09, 0.07, 0.06
    55,10/06/05 00:55:14,13,291.8, 85.3,1012.5,N, 4.38, 0.00,13.64,13.16,13.00,12.92,12.83,12.65,12.56,12.16,11.99,11.85,11.47,10.25, 9.54, 9.16, 9.06, 8.09, 7.93, 7.25, 6.60, 6.29, 5.66, 5.15, 4.58, 3.98, 3.31, 3.02, 2.62, 2.35, 2.17, 1.98, 1.65, 1.41, 1.20, 0.99, 0.86, 0.72, 0.70, 0.56, 0.44, 0.30, 0.22, 0.17, 0.12, 0.10, 0.09, 0.08, 0.06
    56,10/06/05 00:56:14,13,291.9, 86.2,1012.2,N, 4.27, 0.00,13.88,12.43,12.15,11.98,11.78,11.52,11.40,10.99,10.73,10.56,10.20, 9.26, 8.70, 8.45, 8.61, 8.20, 8.27, 7.86, 7.26, 6.95, 6.43, 5.82, 5.35, 4.70, 4.02, 3.64, 3.20, 2.85, 2.67, 2.45, 1.99, 1.73, 1.43, 1.16, 1.00, 0.82, 0.78, 0.62, 0.45, 0.31, 0.22, 0.16, 0.12, 0.09, 0.09, 0.07, 0.06
    57,10/06/05 00:57:14,13,291.9, 86.5,1012.6,N, 4.36, 0.00,13.94,12.87,12.62,12.49,12.33,12.10,12.00,11.57,11.33,11.16,10.78, 9.68, 9.05, 8.71, 8.84, 8.23, 8.26, 7.79, 7.14, 6.84, 6.28, 5.67, 5.17, 4.53, 3.85, 3.50, 3.06, 2.74, 2.56, 2.35, 1.92, 1.66, 1.38, 1.13, 0.97, 0.80, 0.77, 0.61, 0.45, 0.32, 0.22, 0.17, 0.12, 0.10, 0.09, 0.07, 0.06
    58,10/06/05 00:58:14,13,292.0, 86.6,1012.5,N, 4.22, 0.00,14.02,12.07,11.71,11.49,11.22,10.92,10.78,10.39,10.10, 9.93, 9.62, 8.91, 8.45, 8.19, 8.15, 7.72, 7.59, 7.09, 6.57, 6.41, 6.16, 5.73, 5.48, 5.06, 4.55, 4.16, 3.71, 3.33, 3.12, 2.84, 2.32, 1.98, 1.63, 1.30, 1.11, 0.91, 0.83, 0.65, 0.45, 0.32, 0.22, 0.16, 0.12, 0.09, 0.09, 0.07, 0.06
    59,10/06/05 00:59:14,13,291.8, 85.7,1012.1,N, 4.37, 0.00,13.70,13.38,13.23,13.16,13.08,12.91,12.82,12.40,12.23,12.07,11.67,10.34, 9.57, 9.12, 9.08, 8.13, 8.04, 7.41, 6.76, 6.40, 5.70, 5.15, 4.53, 3.87, 3.17, 2.88, 2.50, 2.23, 2.05, 1.88, 1.56, 1.34, 1.14, 0.94, 0.82, 0.69, 0.67, 0.54, 0.43, 0.30, 0.21, 0.17, 0.12, 0.09, 0.09, 0.08, 0.06
    60,10/06/05 01:00:14,13,291.9, 86.2,1012.3,N, 4.33, 0.00,13.83,12.68,12.45,12.31,12.16,11.93,11.83,11.38,11.14,10.95,10.56, 9.43, 8.81, 8.49, 8.75, 8.34, 8.54, 8.21, 7.58, 7.27, 6.67, 5.98, 5.44, 4.71, 3.98, 3.62, 3.16, 2.83, 2.66, 2.45, 1.99, 1.73, 1.43, 1.17, 1.00, 0.82, 0.79, 0.62, 0.46, 0.32, 0.22, 0.17, 0.12, 0.10, 0.09, 0.08, 0.06
    61,10/06/05 01:01:14,13,291.9, 86.7,1012.6,N, 4.31, 0.00,13.95,13.09,12.86,12.71,12.54,12.32,12.20,11.81,11.60,11.42,11.08,10.06, 9.47, 8.99, 8.66, 7.71, 7.34, 6.60, 6.01, 5.75, 5.25, 4.87, 4.44, 4.01, 3.46, 3.17, 2.79, 2.49, 2.26, 2.04, 1.71, 1.44, 1.22, 0.99, 0.86, 0.72, 0.67, 0.54, 0.42, 0.30, 0.21, 0.16, 0.12, 0.09, 0.09, 0.07, 0.06
    62,10/06/05 01:02:14,13,291.9, 86.6,1012.4,N, 4.29, 0.00,13.94,12.45,12.19,12.01,11.79,11.54,11.43,11.03,10.77,10.56,10.20, 9.33, 8.93, 8.58, 8.57, 8.13, 8.00, 7.49, 6.85, 6.58, 6.06, 5.55, 5.14, 4.61, 4.02, 3.66, 3.24, 2.89, 2.67, 2.42, 2.00, 1.70, 1.41, 1.14, 0.97, 0.81, 0.74, 0.59, 0.44, 0.31, 0.22, 0.16, 0.12, 0.09, 0.09, 0.07, 0.06
    63,10/06/05 01:03:14,13,291.8, 85.7,1012.5,N, 4.35, 0.00,13.72,12.98,12.80,12.69,12.58,12.38,12.28,11.89,11.69,11.53,11.14,10.00, 9.36, 9.08, 9.18, 8.46, 8.45, 7.89, 7.18, 6.77, 6.03, 5.39, 4.77, 4.06, 3.33, 3.00, 2.60, 2.31, 2.14, 1.96, 1.61, 1.40, 1.18, 0.97, 0.85, 0.70, 0.69, 0.56, 0.43, 0.30, 0.22, 0.17, 0.12, 0.09, 0.09, 0.07, 0.06
    64,10/06/05 01:04:14,13,291.9, 85.6,1012.7,N, 4.21, 0.00,13.80,12.14,11.84,11.66,11.43,11.18,11.05,10.64,10.37,10.17, 9.84, 9.00, 8.57, 8.23, 8.21, 7.86, 7.79, 7.34, 6.79, 6.58, 6.16, 5.67, 5.33, 4.82, 4.26, 3.89, 3.45, 3.08, 2.86, 2.60, 2.14, 1.82, 1.50, 1.21, 1.03, 0.85, 0.78, 0.61, 0.44, 0.31, 0.22, 0.16, 0.12, 0.09, 0.09, 0.07, 0.06
    65,10/06/05 01:05:14,13,291.8, 85.5,1012.6,N, 4.28, 0.00,13.71,12.60,12.36,12.22,12.07,11.84,11.73,11.30,11.06,10.89,10.52, 9.43, 8.79, 8.44, 8.52, 8.00, 8.06, 7.63, 7.06, 6.81, 6.27, 5.69, 5.20, 4.56, 3.89, 3.54, 3.10, 2.78, 2.59, 2.38, 1.95, 1.68, 1.40, 1.14, 0.98, 0.80, 0.77, 0.61, 0.45, 0.31, 0.22, 0.17, 0.12, 0.09, 0.09, 0.07, 0.06
    66,10/06/05 01:06:14,13,291.9, 86.2,1012.8,N, 4.23, 0.00,13.86,12.31,12.03,11.85,11.63,11.38,11.25,10.86,10.59,10.38,10.04, 9.20, 8.80, 8.44, 8.38, 7.96, 7.82, 7.32, 6.72, 6.48, 5.98, 5.50, 5.12, 4.60, 4.03, 3.67, 3.25, 2.90, 2.67, 2.42, 2.00, 1.70, 1.41, 1.13, 0.97, 0.80, 0.74, 0.58, 0.43, 0.31, 0.22, 0.16, 0.12, 0.09, 0.09, 0.07, 0.06
    67,10/06/05 01:07:14,13,291.9, 87.0,1012.4,N, 4.26, 0.00,13.98,12.63,12.35,12.17,11.96,11.71,11.58,11.18,10.92,10.74,10.39, 9.49, 8.97, 8.59, 8.48, 7.86, 7.68, 7.10, 6.52, 6.26, 5.80, 5.34, 4.94, 4.44, 3.87, 3.52, 3.12, 2.78, 2.56, 2.32, 1.92, 1.63, 1.36, 1.10, 0.95, 0.79, 0.73, 0.58, 0.43, 0.31, 0.22, 0.16, 0.12, 0.09, 0.09, 0.07, 0.06
    68,10/06/05 01:08:14,13,291.9, 85.5,1012.8,N, 4.24, 0.00,13.72,12.23,11.96,11.79,11.60,11.35,11.23,10.83,10.57,10.39,10.03, 9.11, 8.62, 8.35, 8.46, 8.14, 8.20, 7.81, 7.21, 6.94, 6.41, 5.82, 5.37, 4.74, 4.08, 3.70, 3.26, 2.91, 2.71, 2.49, 2.03, 1.75, 1.45, 1.17, 1.01, 0.82, 0.77, 0.61, 0.45, 0.31, 0.22, 0.16, 0.12, 0.09, 0.09, 0.07, 0.06